Hourly Data Report for October 19, 2015

All times are specified in Local Standard Time (LST). Add 1 hour to adjust for Daylight Saving Time where and when it is observed.

PETAWAWA AWOS 2
ONTARIO

45°57'00.000" N
77°19'00.000" W
130.10 m
6106396
71625
YWA

Download Data

Hourly Data (October 2015)
Hourly Data Report for October 19, 2015
Temp Definition
°C
Dew Point Temp Definition
°C
Rel Hum Definition
%
Wind Dir Definition
10's deg

Wind Spd Definition
km/h
Visibility Definition
km
Stn Press Definition
kPa
Hmdx Definition


Wind Chill Definition


Weather Definition


TIME
00:00 -4.8 -6.9 85 26 4 14.5 101.33   -7 LegendNANA
01:00 -5.9 -7.1 91 26 4 14.5 101.30   -8 LegendNANA
02:00 -7.1 -8.4 90 23 4 14.5 101.29   -9 LegendNANA
03:00 -6.3 -7.5 91 23 4 14.5 101.25   -8 LegendNANA
04:00 -5.2 -6.8 88 19 4 14.5 101.23   -7 LegendNANA
05:00 -3.3 -6.2 80 17 6 14.5 101.20   -6 LegendNANA
06:00 -3.0 -5.6 82 16 6 14.5 101.17   -5 LegendNANA
07:00 -2.6 -5.2 82 14 11 14.5 101.09   -7 Snow
08:00 -1.7 -4.9 79 14 9 14.5 101.00   -5 Snow
09:00 1.6 -4.5 64 20 11 14.5 100.86     LegendNANA
10:00 2.8 -4.3 60 18 17 14.5 100.68     Snow
11:00 4.1 -3.5 58 18 13 14.5 100.55     LegendNANA
12:00 5.0 -2.7 57 16 17 14.5 100.33     LegendNANA
13:00 5.2 0.9 74 15 11 14.5 100.18     Rain
14:00 6.2 3.4 82 14 17 14.5 99.96     Rain
15:00 7.8 3.4 74 15 15 14.5 99.77     Drizzle
16:00 8.4 4.1 74 15 9 14.5 99.70     LegendNANA
17:00 8.8 5.0 77 14 11 14.5 99.69     LegendNANA
18:00 8.9 5.1 77 15 11 14.5 99.70     LegendNANA
19:00 8.4 3.1 69 16 13 14.5 99.69     LegendNANA
20:00 8.4 3.0 69 16 13 14.5 99.63     LegendNANA
21:00 9.0 4.6 74 15 11 14.5 99.55     LegendNANA
22:00 8.4 4.3 75 14 7 14.5 99.54     LegendNANA
23:00 5.5 3.1 84 16 4 14.5 99.53     LegendNANA

Notes on Data Quality.

Legend

  • E = Estimated
  • M = Missing
  • NA = Not Available
  • ‡ = Partner data that is not subject to review by the National Climate Archives
Date modified: